Regional Weather Roundup
Issued by NWS New Orleans/Baton Rouge, LA

Home | Current Version | Previous Version | Text Only | Print | Product List | Glossary On
Versions: 1 2 3 4 5 6 7 8 9 10 11 12 13 14 15 16 17 18 19 20 21 22 23 24 25 26 27 28
000
ASUS44 KLIX 270412
RWRLIX
NEW ORLEANS REGIONAL WEATHER ROUNDUP
NATIONAL WEATHER SERVICE NEW ORLEANS LA
1100 PM CDT FRI AUG 26 2016

NOTE: "FAIR" INDICATES FEW OR NO CLOUDS BELOW 12,000 FEET WITH NO
      SIGNIFICANT WEATHER AND/OR OBSTRUCTIONS TO VISIBILITY.
      SKY/WX - SKY CONDITION AND SIGNIFICANT WEATHER.
      TMP - AIR TEMPERATURE.     DP    - DEWPOINT TEMPERATURE.
      RH  - RELATIVE HUMIDITY.   PRES  - PRESSURE.
      HI  - HEAT INDEX.          WCI   - WIND CHILL INDEX.

*  THESE STATIONS ARE NOT NWS OR FAA STATIONS AND ARE NOT UNDER
   NWS QUALITY CONTROL.

LAZ038-040-048-061>063-065>067-069-270500-
SOUTHEAST LOUISIANA

CITY           SKY/WX    TMP DP  RH WIND       PRES   REMARKS
N.O. AUDUBON   NOT AVBL
N.O. INTL ARPT MOCLDY    83  74  74 E3        29.99R
N.O. LAKEFRONT PTCLDY    83  75  77 E5        30.00R
N.O. DOWNTOWN*   N/A     83  74  74 CALM      30.00R
RESERVE*         N/A     80  76  87 CALM      30.00R
SLIDELL        CLEAR     78  76  93 CALM      29.99R
BATON ROUGE    PTCLDY    78  75  90 CALM      30.01R
BOOTHVILLE     PTCLDY    81  76  84 CALM      29.99R
BELLE CHASSE   MOCLDY    76  75  97 CALM      29.99R
BOGALUSA*        N/A     77  73  87 CALM      30.02S
GALLIANO*      PTCLDY   N/A N/A N/A CALM      29.99R
NEW ROADS*     MOCLDY    77  75  95 CALM      30.01S
GONZALES*        N/A     77  76  98 CALM      29.99S
HAMMOND*       CLEAR     77  73  88 CALM      30.00S
HOUMA*         MOCLDY    76  76  98 CALM      29.99S
PORT FOURCHON* CLEAR     82  73  74 E7        29.98S

$$

MSZ070-080>082-270500-
SOUTHERN MISSISSIPPI

CITY           SKY/WX    TMP DP  RH WIND       PRES   REMARKS
MCCOMB         PTCLDY    74  70  87 CALM      30.02S
GULFPORT       CLEAR     80  77  90 NE3       29.98S
BILOXI         CLEAR     79  77  94 NE5       29.98S
PASCAGOULA     CLEAR     76  76 100 CALM      29.99S

$$

COASTAL OBSERVATIONS
LAKE AND NEARSHORE STATIONS

STATION/POSITION TIME  TEMP    WIND        PRES    WAVE
                       AIR SEA DIR/SP/G            HT/PER
                 (UTC) (F)     (DEG/KT/KT) (MB)    (FT/S)
PASCAGOULA       0300   85     110/  7/  9 1015.0
WAVELAND YACHT   0300   83 87   60/  5/  6 1015.4
GRAND ISLE       0300   81 87  100/  5/  7 1015.1
SOUTHWEST PASS   0300           50/  4/  5   N/A
NEW CANAL        0300   82 87   80/  3/  4 1014.6
SHELL BEACH      0300   83 87   80/  6/  7 1015.3

OFFSHORE STATIONS

STATION/POSITION TIME  TEMP    WIND        PRES    WAVE
                       AIR SEA DIR/SP/G            HT/PER
                 (UTC) (F)     (DEG/KT/KT) (MB)    (FT/S)
64 S DAUPHIN ISL 0300   84 86   90/ 14/ 16 1014.3

$$





USA.gov is the U.S. government's official web portal to all federal, state and local government web resources and services.